Regional Weather Roundup
Issued by NWS

Home | Current Version | Previous Version | Graphics & Text | Print | Product List | Glossary On
Versions: 1 2 3 4 5 6 7 8 9 10 11 12 13 14 15 16 17 18 19 20 21 22 23 24 25 26 27 28 29 30 31 32 33 34 35 36 37 38 39 40 41 42 43 44 45 46 47 48 49 50
000
ASUS43 KDMX 040507
RWRIA

WEATHER ROUNDUP FOR IOWA
NATIONAL WEATHER SERVICE DES MOINES IA
1200 AM CDT MON MAY 04 2015

NOTE: "FAIR" INDICATES FEW OR NO CLOUDS BELOW 12,000 FEET WITH NO
SIGNIFICANT WEATHER AND/OR OBSTRUCTIONS TO VISIBILITY.

* - THESE STATIONS ARE NOT NWS STATIONS...THUS NOT UNDER NWS
QUALITY CONTROL.  THEY ALSO DO NOT REPORT WEATHER SUCH
AS PRECIPITATION OR FOG.

IAZ001>003-012>014-020>022-031>034-043>046-040600-
   NORTHWEST IOWA

CITY           SKY/WX    TMP DP  RH WIND       PRES   REMARKS
CARROLL *      CLOUDY    66  57  72 N12       29.89R
CHEROKEE *     CLOUDY    62  44  51 N9        29.95S THUNDER
DENISON *      CLEAR     66  55  68 N15G24    29.88R
LE MARS *      CLOUDY    63  46  55 N9        29.99R
ORANGE CITY *  CLOUDY    61  39  44 N7        29.99R
SHELDON *      CLOUDY    61  41  48 NE10      29.97R
SIOUX CITY     CLOUDY    63  44  50 NE17G26   29.93F
SPENCER        CLOUDY    61  46  57 N12       29.96R
STORM LAKE *   CLOUDY    61  50  67 N10G17    29.96R
$$

IAZ055>058-069>071-079>083-090>094-040600-
   SOUTHWEST IOWA

CITY           SKY/WX    TMP DP  RH WIND       PRES   REMARKS
ATLANTIC *     CLOUDY    68  59  73 NW8       29.86R
AUDUBON *      CLOUDY    64  57  77 N10       29.88R
CLARINDA *     CLOUDY    68  55  64 VRB5      29.90R
COUNCIL BLFS * CLOUDY    68  57  68 N18       29.87R
CRESTON *      CLOUDY    68  54  60 CALM      29.86R
HARLAN  *      CLOUDY    66  61  82 N9G16     29.91R
LAMONI         LGT RAIN  71  56  58 S12       29.88S
RED OAK *      CLOUDY    68  57  68 S12       29.88R
SHENANDOAH *   LGT RAIN  72  57  60 CALM      29.91R
$$

IAZ047>049-059>061-072>074-084-040600-
   CENTRAL IOWA

CITY           SKY/WX    TMP DP  RH WIND       PRES   REMARKS
AMES           CLOUDY    65  52  62 E3        29.86R
ANKENY *       CLOUDY    66  59  77 CALM      29.86R
CHARITON *     CLOUDY    70  59  68 SW9       29.84F
DES MOINES     CLOUDY    70  58  65 S6        29.86R
GRINNELL*      CLOUDY    66  52  59 NE10G23   29.90R
KNOXVILLE *    CLOUDY    70  57  64 S10       29.84R
MARSHALLTOWN   CLOUDY    62  55  77 SE9       29.87R
PELLA *        CLOUDY    71  62  73 S6        29.87R
PERRY *          N/A     66  55  68 NE10      29.86R
$$

IAZ004>006-015-016-023>025-035-036-040600-
   NORTH CENTRAL IOWA

CITY           SKY/WX    TMP DP  RH WIND       PRES   REMARKS
ALGONA *       CLOUDY    61  52  72 N7        29.93R
CLARION *      CLOUDY    61  59  94 N6G12     29.89R
ESTHERVILLE    MOCLDY    55  43  63 N8        29.95R
FORT DODGE *   CLOUDY    63  57  82 NE6       29.90R THUNDER
MASON CITY     CLOUDY    59  56  89 N6        29.92R
FOREST CITY *  CLOUDY    59  54  82 N6        29.92R
IOWA FALLS *   LGT RAIN  61  57  88 SE5       29.89R
$$

IAZ007>011-017>019-026>030-037>042-050>054-066-040600-
   NORTHEAST IOWA

CITY           SKY/WX    TMP DP  RH WIND       PRES   REMARKS
CEDAR RAPIDS   TSTM      61  57  87 N7        29.94R
CHARLES CITY * CLOUDY    61  61 100 E3        29.91R
CLINTON *      CLOUDY    68  55  64 SW12      29.92R
DECORAH *      CLOUDY    59  57  94 NW9       29.89R
DUBUQUE        TSTM      59  56  89 NW17G25   29.98R
MONTICELLO *   LGT RAIN  61  61 100 N9G16     29.94F
OELWEIN *      CLOUDY    61  57  88 E17       29.88F
WATERLOO       CLOUDY    61  58  90 S9        29.86S
$$

IAZ064-065-067-068-078-040600-
   EAST CENTRAL IOWA

CITY           SKY/WX    TMP DP  RH WIND       PRES   REMARKS
DAVENPORT      CLOUDY    73  52  47 S14       29.91R
IOWA CITY      TSTM      67  54  63 N12G24    29.96R
MT. PLEASANT * CLOUDY    67  55  65 S8        29.91S
MUSCATINE *    CLOUDY    72  55  56 S10       29.90R
QUAD CITIES    CLOUDY    72  53  51 S10       29.89R
$$

IAZ062-063-075>077-085>089-095>099-040600-
   SOUTHEAST IOWA

CITY           SKY/WX    TMP DP  RH WIND       PRES   REMARKS
BURLINGTON     CLOUDY    67  56  67 S6        29.92R
FAIRFIELD *    CLOUDY    70  57  64 S10       29.89S
FORT MADISON * CLOUDY    68  55  64 S7        29.93S
KEOKUK *       CLOUDY    70  57  64 SW8       29.92R
OSKALOOSA *      N/A     69  57  65 S7        29.87S
CENTERVILLE *    N/A     70  59  68 S14       29.90S
WASHINGTON *   CLOUDY    72  61  68 S10       29.90R
$$

ABBREVIATIONS USED IN REMARKS
   TC - TEMPERATURES IN CELSIUS
  WCI - WIND CHILL INDEX
   HX - HEAT INDEX
  VSB - VISIBILITY
$$




USA.gov is the U.S. government's official web portal to all federal, state and local government web resources and services.